Wetbulb
47.74 42.37 39.15 41.80 42.92 40.34 39.60 36.29 33.60 36.64 40.87 37.04 36.14 35.92 38.94 41.90 41.26 42.00 44.16 43.87 43.79 45.38 48.77 48.19 48.46 48.54 48.48 48.97 49.18 51.15 57.96 63.46 64.91 65.24 64.61 63.83 63.20 63.09 63.44 63.19 62.52 61.23 59.59 57.54
42.28 36.78 41.90 44.05 43.15 40.86 38.31 36.72 33.29 36.66 39.42 36.59 35.39 35.31 39.14 40.94 41.43 42.55 43.49 44.66 45.33 45.24 45.68 46.20 48.00 48.37 48.81 49.64 48.77 48.99 52.27 59.24 63.79 65.71 65.84 65.07 64.06 62.20 63.48 63.27 62.61 62.22 59.30 57.77
36.48 38.15 42.92 40.93 39.78 38.45 34.69 31.59 32.10 33.12 35.93 34.68 33.60 33.27 34.75 38.31 39.92 41.51 43.89 44.88 45.21 45.06 45.73 46.72 45.03 46.11 46.75 46.94 48.54 50.15 50.60 53.56 61.53 64.83 62.21 57.73 58.41 57.87 58.25 59.76 60.31 61.58 58.86 57.43
37.63 40.75 40.12 38.59 36.98 36.76 31.16 36.45 36.53 34.59 31.28 25.39 33.05 23.14 29.71 34.97 36.72 38.32 38.04 38.67 41.31 42.85 43.33 45.22 45.25 44.96 45.76 46.56 47.16 48.94 50.41 51.56 54.32 55.79 59.49 61.90 61.06 59.79 59.02 62.02 57.62 54.64 54.23 56.40
35.02 37.26 36.36 35.04 36.71 38.42 34.48 38.46 35.62 33.81 28.97 26.19 27.51 24.81 27.95 32.52 34.09 36.62 37.80 38.83 39.44 40.27 41.48 42.30 43.05 45.02 45.63 44.86 44.62 45.82 48.21 50.04 52.03 53.99 58.36 59.83 60.87 60.95 55.71 53.40 52.54 52.17 52.60 53.14
36.76 40.88 38.93 37.46 39.17 38.95 39.48 34.78 32.82 30.94 26.83 17.18 25.09 25.42 25.73 30.08 33.57 34.24 36.91 38.31 41.07 41.61 40.17 41.81 42.88 43.28 43.63 43.52 43.83 43.51 45.39 47.70 49.77 51.98 55.30 58.60 57.85 53.00 52.99 50.75 50.13 49.47 49.37 50.20
35.90 35.86 38.31 40.24 35.36 37.40 35.51 27.48 16.05 16.21 15.04 18.03 27.80 25.27 27.38 33.83 37.59 37.05 37.95 37.84 38.31 39.50 40.07 41.16 41.24 42.16 42.87 43.29 45.01 45.46 45.74 46.74 48.22 49.69 53.99 55.76 56.36 54.31 53.71 51.40 50.68 47.66 47.04 46.37
27.03 23.55 35.00 37.90 35.24 32.55 31.52 28.43 18.41 15.11 18.91 20.13 27.58 23.17 28.99 34.87 37.36 37.00 37.98 37.51 39.40 39.78 39.11 39.67 40.97 42.40 44.47 45.57 45.75 46.19 46.70 46.59 47.03 48.98 54.12 56.31 55.83 54.60 53.20 52.00 49.60 49.17 47.87 46.06
24.69 27.53 38.70 37.97 38.69 36.63 31.01 22.98 31.13 22.48 20.80 14.88 22.35 25.74 31.56 35.15 36.28 37.41 37.74 39.05 39.10 40.46 41.07 39.78 42.67 43.79 44.67 44.92 45.69 46.19 47.23 47.06 47.35 50.31 54.19 51.20 52.10 51.18 49.94 47.62 47.52 46.15 46.37 45.65
33.38 25.35 37.12 38.77 40.56 39.33 33.35 35.03 22.97 17.69 7.65 14.23 20.37 22.03 26.02 30.96 33.80 34.97 36.48 37.56 39.22 41.18 43.17 42.18 42.97 44.36 45.05 45.27 45.56 46.10 46.81 46.78 47.37 52.62 49.56 49.07 49.04 48.70 47.42 47.05 47.03 45.71 46.26 44.39
35.90 29.04 32.83 37.30 31.84 30.42 32.13 29.81 29.08 26.49 22.89 15.54 17.98 23.02 31.07 31.85 34.09 34.39 36.39 38.82 43.08 43.51 43.46 42.82 40.14 43.67 44.92 44.97 45.28 46.58 47.00 46.67 50.79 48.46 46.48 45.91 45.17 45.70 46.37 46.11 45.17 44.72 44.23 42.39
37.58 31.83 25.79 30.10 34.92 36.14 34.32 31.49 29.81 19.26 18.27 20.99 18.87 23.54 35.93 34.04 35.22 38.16 40.99 42.92 43.07 43.86 42.51 42.41 42.61 44.96 44.59 44.25 45.53 48.75 48.32 49.91 48.66 46.90 45.10 43.96 43.59 44.09 44.02 42.92 43.15 41.96 40.52 42.23
36.76 30.17 20.04 26.96 29.94 33.80 29.27 32.38 32.28 29.31 28.43 16.58 20.57 23.95 35.50 35.69 38.90 40.79 43.23 44.00 41.59 42.53 43.77 42.69 42.30 43.90 44.35 44.39 48.29 45.16 44.12 43.24 42.28 42.16 41.69 41.95 41.61 42.48 41.70 41.75 39.78 39.59 39.62 39.37
40.53 30.27 24.98 21.23 23.94 28.63 23.59 30.61 32.07 28.34 21.89 22.06 23.69 28.50 34.29 36.48 38.74 42.32 44.25 45.24 41.83 44.61 44.98 42.57 43.70 43.98 43.73 45.16 41.59 39.20 39.02 41.69 39.57 41.33 41.27 40.08 39.27 39.49 39.99 40.17 39.73 39.30 38.75 37.79
36.14 27.40 29.43 30.63 31.99 32.04 30.14 29.97 30.67 25.42 30.35 25.54 29.77 31.15 34.91 38.36 41.04 43.11 43.68 43.95 44.25 44.51 44.54 42.61 42.60 41.18 41.83 38.63 37.66 37.28 39.47 40.76 41.76 40.00 39.28 38.19 38.40 39.20 39.04 38.33 38.05 37.68 36.97 36.39
34.75 23.52 30.59 22.06 30.38 30.87 27.19 31.21 31.68 32.00 32.60 33.11 33.59 32.77 40.02 42.37 44.62 41.21 40.61 39.78 39.18 40.21 44.13 43.67 37.44 36.16 36.39 35.67 36.50 37.68 39.46 40.08 41.21 39.78 38.89 38.76 37.76 37.01 36.60 36.28 36.76 36.20 35.23 34.85
35.17 31.45 23.59 20.39 29.86 29.82 25.16 30.99 32.73 32.89 33.72 35.16 31.46 36.82 41.89 41.95 41.77 38.37 36.40 35.54 35.52 38.39 42.90 38.44 35.78 35.08 35.49 36.08 36.04 35.49 37.15 38.00 37.89 37.25 36.83 36.27 35.62 34.83 34.71 35.02 34.69 34.03 33.70 34.58
34.61 31.90 24.40 20.31 25.91 19.34 33.13 39.04 38.32 35.23 36.21 37.52 38.74 41.18 41.47 42.39 40.12 37.46 35.67 33.90 33.73 34.12 34.58 33.23 32.17 32.37 34.42 35.66 35.79 36.16 36.02 35.50 35.09 34.60 34.84 35.43 35.59 35.27 35.49 34.98 34.25 34.33 34.82 34.08
36.72 32.91 24.28 25.33 23.77 28.88 35.91 38.10 36.42 34.82 34.38 38.64 38.11 39.47 42.64 42.27 41.91 37.53 36.29 34.44 33.42 33.41 33.76 33.91 34.56 34.30 34.52 34.56 34.92 34.65 34.30 34.43 34.30 34.05 34.30 34.93 35.25 34.51 34.08 33.07 32.60 32.94 32.50 31.53
38.05 36.80 30.79 30.00 22.69 23.66 33.50 37.22 40.01 38.17 30.34 39.28 38.85 40.42 41.92 40.57 37.89 37.11 35.69 34.52 33.66 34.07 34.40 33.97 34.25 34.35 34.06 34.25 35.00 34.25 33.78 33.83 33.75 34.30 34.56 35.45 34.93 33.33 33.15 33.10 32.30 31.84 31.93 30.95
33.54 34.15 30.37 29.27 27.92 30.41 35.82 37.69 41.32 29.43 32.02 38.25 39.27 41.30 39.53 38.39 38.00 37.62 36.68 35.22 35.60 35.73 35.48 35.69 35.32 34.55 34.82 35.72 35.65 34.08 33.82 33.06 33.97 33.85 34.03 35.08 34.67 33.45 32.68 31.86 31.94 31.29 30.26 28.96
31.10 29.68 30.74 31.31 29.03 23.98 37.44 38.88 35.29 38.47 38.04 38.52 38.88 39.04 39.30 38.28 37.69 37.39 37.09 35.93 35.66 35.56 35.28 35.23 33.82 33.79 35.20 36.78 35.06 33.32 31.84 33.94 33.74 34.01 33.81 32.73 33.18 34.03 32.63 30.57 29.06 27.96 26.11 24.25
30.54 33.14 32.19 33.36 31.69 37.33 38.66 39.74 39.23 38.91 37.85 37.69 38.12 39.50 38.98 37.86 35.31 34.70 35.05 35.71 35.19 35.38 34.91 35.14 34.14 33.05 33.62 35.77 35.24 32.49 33.32 33.73 33.36 32.77 32.15 31.32 31.07 30.14 28.01 26.34 24.39 22.91 23.18 22.52
37.35 39.36 36.38 36.20 38.96 39.18 40.15 38.71 38.16 37.24 36.86 37.78 39.77 39.84 38.19 37.02 35.34 33.66 33.66 34.03 34.99 36.37 35.88 36.04 35.22 31.99 31.48 33.35 34.10 32.98 32.95 32.70 31.34 28.97 27.71 27.31 25.86 25.38 24.91 25.06 24.60 22.55 21.05 19.89
37.74 39.43 37.66 37.15 38.76 38.42 38.71 38.73 38.23 36.85 37.01 37.40 40.74 39.68 38.95 36.93 34.74 33.96 33.56 33.36 32.63 32.39 32.25 31.62 29.53 28.96 29.00 30.43 29.94 29.86 29.61 28.86 26.77 25.58 24.97 24.58 24.45 22.99 22.23 22.68 22.62 22.47 21.39 22.00
37.51 37.85 36.20 36.17 41.15 39.58 39.45 38.92 38.91 36.69 36.47 37.42 37.80 37.37 37.92 37.72 35.53 34.87 34.04 34.21 32.35 30.25 30.00 29.33 29.26 29.30 29.62 30.02 29.80 29.82 29.05 27.85 25.99 24.18 23.39 23.33 21.75 21.00 20.72 20.65 21.00 30.20 29.70 29.99
MSLP
1012.37 1012.77 1012.74 1012.78 1013.22 1013.56 1013.80 1013.95 1014.11 1013.62 1013.21 1013.07 1012.57 1012.30 1011.43 1010.76 1010.67 1010.38 1010.00 1009.52 1009.11 1008.55 1007.78 1007.91 1007.88 1007.79 1007.89 1007.90 1007.92 1008.21 1008.23 1008.32 1008.97 1009.79 1010.39 1010.78 1011.21 1011.48 1011.57 1011.85 1011.88 1012.56 1013.06 1013.77
1012.80 1012.59 1012.74 1013.10 1013.38 1013.80 1014.18 1014.25 1014.32 1013.93 1013.70 1013.62 1013.04 1012.06 1011.16 1010.11 1009.54 1009.14 1008.83 1008.34 1008.14 1008.10 1007.67 1007.58 1007.48 1007.53 1007.56 1007.47 1007.56 1007.69 1007.87 1007.75 1007.86 1008.37 1008.93 1009.39 1009.90 1010.62 1010.82 1011.41 1011.48 1011.87 1012.36 1013.15
1012.56 1012.45 1012.53 1013.03 1013.45 1013.90 1014.21 1014.44 1014.77 1014.97 1014.48 1014.27 1013.79 1011.99 1010.64 1009.37 1008.50 1007.90 1007.52 1007.41 1007.58 1007.39 1007.13 1007.12 1007.18 1007.12 1007.26 1007.37 1007.18 1007.27 1007.30 1007.40 1007.13 1007.38 1008.23 1009.29 1009.93 1010.63 1011.09 1011.50 1011.56 1011.85 1011.95 1012.76
1012.56 1012.31 1012.47 1012.94 1013.30 1013.63 1014.25 1014.69 1015.05 1015.54 1015.83 1016.19 1015.49 1014.13 1011.82 1009.83 1008.79 1007.89 1007.33 1007.40 1007.09 1007.00 1006.73 1006.61 1006.64 1006.59 1006.49 1006.43 1006.41 1006.59 1006.67 1006.84 1006.96 1006.95 1007.89 1008.35 1008.72 1009.82 1010.07 1010.32 1011.10 1011.80 1012.33 1012.66
1012.69 1012.54 1012.79 1013.04 1013.30 1013.65 1014.60 1015.03 1015.77 1016.50 1017.13 1017.36 1016.54 1016.14 1011.94 1010.47 1009.03 1007.90 1007.32 1006.95 1006.58 1006.54 1006.60 1006.49 1006.43 1006.11 1006.01 1006.11 1006.25 1006.26 1006.31 1006.36 1006.50 1006.99 1006.95 1007.90 1008.38 1008.73 1009.37 1010.31 1011.21 1011.86 1012.68 1013.15
1012.89 1012.79 1013.07 1013.19 1013.46 1013.77 1014.73 1015.89 1016.88 1017.62 1018.28 1018.25 1016.65 1016.04 1012.97 1010.79 1009.15 1008.07 1007.55 1007.36 1006.89 1006.44 1006.29 1006.19 1005.93 1005.76 1005.81 1006.01 1006.15 1006.26 1006.40 1006.34 1006.42 1006.54 1006.91 1007.07 1007.74 1008.69 1009.72 1010.37 1011.23 1012.11 1012.72 1013.42
1013.68 1013.72 1013.49 1013.41 1014.10 1014.59 1015.39 1016.94 1018.58 1019.32 1019.61 1018.13 1016.86 1016.21 1012.70 1010.26 1008.96 1008.82 1008.59 1008.20 1007.57 1007.28 1007.01 1006.49 1006.01 1006.06 1005.91 1005.90 1005.91 1005.87 1005.90 1005.97 1006.00 1006.34 1006.45 1006.64 1007.19 1007.76 1008.63 1009.51 1010.36 1011.54 1012.53 1013.22
1014.28 1014.62 1013.86 1013.79 1014.13 1014.87 1015.92 1017.19 1018.70 1019.43 1019.85 1018.73 1016.66 1014.96 1011.60 1009.79 1008.98 1008.54 1008.60 1008.43 1007.93 1007.79 1007.63 1007.13 1006.89 1006.44 1006.11 1006.04 1005.98 1005.89 1005.89 1005.90 1005.79 1005.80 1006.02 1006.19 1006.64 1007.47 1008.43 1009.02 1009.71 1010.58 1011.61 1012.67
1014.43 1014.31 1013.91 1013.98 1014.22 1014.88 1016.10 1017.24 1018.17 1019.24 1020.24 1019.69 1016.81 1014.13 1011.14 1009.67 1009.20 1008.95 1008.82 1008.64 1008.64 1008.40 1008.04 1007.74 1007.47 1006.81 1006.30 1006.14 1006.00 1005.83 1005.63 1005.54 1005.52 1005.40 1005.73 1006.19 1006.82 1007.38 1007.84 1008.80 1009.65 1010.55 1011.58 1012.50
1013.64 1014.30 1014.25 1014.30 1014.44 1014.91 1015.56 1016.84 1018.47 1019.63 1020.40 1019.50 1016.70 1014.72 1011.61 1010.03 1009.55 1009.49 1009.22 1009.11 1009.00 1008.60 1008.05 1007.58 1007.49 1007.12 1006.76 1006.27 1005.99 1005.69 1005.60 1005.35 1005.04 1005.19 1005.63 1006.26 1006.63 1007.27 1007.91 1008.58 1009.54 1010.35 1011.56 1012.37
1013.21 1014.15 1015.19 1014.84 1014.91 1015.25 1016.08 1016.82 1017.82 1018.85 1019.52 1019.50 1017.80 1013.65 1010.68 1009.92 1009.48 1009.42 1009.15 1008.89 1008.70 1008.43 1008.12 1007.53 1007.21 1006.97 1006.46 1006.27 1005.93 1005.49 1005.15 1005.30 1005.05 1005.20 1005.69 1006.50 1007.03 1007.62 1008.36 1009.15 1009.70 1010.41 1011.40 1012.35
1013.34 1014.32 1015.52 1015.47 1015.29 1015.34 1015.77 1016.52 1017.47 1018.58 1019.18 1019.25 1018.19 1013.31 1010.02 1009.46 1009.25 1009.16 1008.70 1008.67 1008.67 1008.51 1008.09 1007.60 1007.34 1006.86 1006.52 1006.54 1006.18 1005.45 1004.98 1004.98 1005.22 1005.22 1006.02 1006.76 1007.34 1008.01 1008.89 1009.61 1010.17 1010.62 1011.63 1012.62
1013.39 1014.62 1015.84 1016.05 1016.11 1015.81 1016.03 1016.40 1016.87 1017.73 1018.19 1018.14 1017.50 1012.78 1010.11 1009.65 1009.06 1008.75 1008.44 1008.41 1008.33 1008.14 1007.88 1007.59 1007.26 1007.10 1006.80 1006.49 1006.28 1005.87 1005.61 1005.82 1005.76 1005.71 1006.40 1007.16 1007.92 1008.39 1009.12 1009.94 1010.53 1011.25 1012.05 1013.03
1013.42 1014.90 1015.65 1015.96 1015.71 1015.60 1015.93 1015.84 1016.34 1017.14 1017.71 1016.50 1014.65 1011.90 1010.74 1009.86 1009.06 1008.49 1008.27 1007.92 1008.28 1007.99 1007.69 1007.84 1007.58 1006.97 1006.82 1006.88 1006.93 1006.80 1007.05 1007.44 1006.58 1007.03 1007.59 1008.03 1008.54 1008.83 1009.29 1010.14 1011.05 1011.87 1012.59 1013.46
1014.02 1015.35 1016.03 1016.03 1015.71 1015.56 1015.39 1015.42 1015.72 1016.22 1015.24 1015.28 1012.56 1012.32 1010.27 1009.49 1008.86 1008.62 1008.60 1008.49 1008.35 1007.98 1007.67 1007.62 1007.49 1007.16 1007.34 1007.68 1007.98 1007.80 1007.54 1007.71 1008.28 1008.52 1008.85 1008.59 1009.40 1009.90 1010.26 1010.99 1011.98 1012.83 1013.50 1014.44
1014.49 1015.87 1016.55 1016.25 1015.36 1015.15 1014.99 1014.47 1014.52 1014.47 1014.18 1013.73 1012.12 1010.95 1009.69 1009.18 1009.10 1009.24 1009.43 1009.38 1009.02 1008.45 1008.02 1007.71 1007.91 1008.08 1008.28 1008.44 1008.63 1008.62 1008.20 1008.66 1009.30 1009.74 1009.81 1009.82 1010.59 1010.89 1011.53 1012.12 1013.12 1013.74 1014.50 1015.61
1014.76 1015.87 1016.93 1016.53 1015.44 1014.73 1013.76 1012.14 1012.25 1012.36 1012.15 1011.77 1011.24 1009.73 1009.31 1009.10 1009.51 1010.18 1010.46 1010.44 1010.05 1008.90 1008.24 1008.48 1008.54 1008.75 1008.83 1009.12 1009.28 1009.27 1009.49 1009.84 1010.47 1010.58 1011.09 1011.49 1011.55 1012.18 1012.82 1013.48 1014.25 1015.15 1015.94 1016.84
1014.76 1015.84 1016.71 1016.36 1015.21 1013.86 1011.14 1010.06 1010.02 1010.52 1010.16 1010.28 1010.00 1009.69 1009.57 1009.60 1010.19 1010.96 1011.29 1011.06 1010.74 1010.20 1009.86 1009.73 1009.77 1009.83 1009.81 1009.90 1010.13 1010.57 1010.95 1011.49 1011.76 1012.31 1012.62 1013.03 1013.07 1013.48 1014.06 1014.60 1015.64 1016.52 1017.15 1017.82
1014.33 1015.51 1016.09 1015.90 1014.96 1012.61 1010.31 1009.47 1009.36 1009.73 1009.50 1009.30 1009.56 1009.54 1009.51 1009.63 1010.26 1011.29 1011.76 1011.65 1011.50 1011.26 1010.97 1010.81 1010.70 1010.51 1010.41 1010.58 1011.02 1011.49 1012.02 1012.43 1012.94 1013.30 1013.60 1013.88 1014.32 1015.09 1015.63 1016.37 1016.95 1017.39 1018.07 1018.69
1014.40 1014.89 1015.46 1015.08 1014.32 1012.25 1009.88 1009.01 1008.91 1009.24 1009.44 1009.11 1009.40 1009.58 1009.78 1010.19 1010.94 1011.85 1012.27 1012.24 1012.21 1012.08 1011.91 1011.75 1011.70 1011.80 1011.80 1011.99 1011.92 1012.10 1012.74 1013.02 1013.44 1014.05 1014.59 1014.91 1015.37 1015.47 1016.70 1017.56 1017.89 1018.39 1018.73 1019.30
1014.14 1014.47 1014.62 1014.45 1013.64 1011.49 1009.53 1008.97 1009.02 1009.33 1009.57 1009.05 1009.35 1009.72 1010.07 1010.89 1011.79 1012.22 1012.66 1012.87 1012.80 1012.85 1012.90 1012.88 1012.87 1013.04 1013.20 1013.19 1013.12 1013.43 1014.08 1014.55 1015.02 1015.02 1015.53 1016.02 1016.71 1016.93 1017.42 1018.19 1018.48 1018.77 1019.02 1019.29
1013.11 1013.60 1013.45 1013.36 1012.80 1010.96 1008.81 1008.96 1009.30 1008.96 1008.88 1009.02 1009.41 1010.03 1010.48 1011.22 1012.03 1012.56 1013.00 1013.28 1013.31 1013.42 1013.66 1013.87 1014.02 1014.21 1014.34 1014.45 1014.34 1014.84 1015.16 1015.72 1015.88 1016.24 1016.55 1017.12 1017.60 1017.95 1018.62 1018.93 1018.94 1019.22 1019.61 1019.94
1012.19 1011.70 1011.62 1011.46 1010.45 1009.11 1008.62 1008.65 1008.82 1009.07 1009.30 1009.33 1009.65 1010.19 1010.81 1011.43 1012.33 1012.92 1013.29 1013.65 1013.82 1014.03 1014.31 1014.68 1014.79 1015.06 1015.35 1015.31 1015.29 1015.61 1016.27 1016.50 1016.73 1017.05 1017.69 1018.34 1018.67 1018.90 1019.19 1019.40 1019.73 1020.05 1020.25 1020.43
1010.94 1010.50 1010.55 1010.49 1008.97 1008.77 1008.51 1008.71 1008.90 1009.26 1009.45 1009.61 1009.80 1010.43 1011.00 1011.69 1012.34 1013.08 1013.56 1013.79 1013.97 1014.31 1014.66 1014.96 1015.33 1015.63 1015.82 1015.94 1016.19 1016.54 1016.91 1017.27 1017.71 1017.96 1018.45 1018.75 1019.06 1019.56 1019.81 1020.06 1020.27 1020.43 1020.61 1020.96
1010.24 1010.07 1009.61 1009.33 1008.72 1008.56 1008.54 1008.72 1009.02 1009.36 1009.66 1009.84 1010.14 1010.58 1011.17 1011.87 1012.56 1013.04 1013.59 1014.04 1014.33 1014.64 1014.95 1015.21 1015.61 1015.98 1016.23 1016.42 1016.79 1017.08 1017.35 1017.67 1018.17 1018.72 1019.18 1019.49 1019.83 1020.19 1020.47 1020.58 1020.61 1020.76 1020.93 1021.05
1009.71 1009.20 1009.20 1008.71 1008.22 1008.45 1008.40 1008.53 1009.01 1009.56 1009.84 1010.07 1010.39 1010.99 1011.40 1011.80 1012.42 1013.02 1013.63 1014.10 1014.54 1014.90 1015.25 1015.64 1015.93 1016.24 1016.63 1016.86 1017.14 1017.50 1017.78 1018.09 1018.65 1019.32 1019.79 1020.15 1020.38 1020.57 1020.67 1020.81 1021.02 1020.89 1021.05 1021.17
Wind_Speed
4 3 7 5 5 3 4 2 2 4 4 5 7 6 12 10 7 10 15 13 14 15 14 7 8 9 9 9 8 8 9 12 10 9 9 7 10 8 7 9 13 11 9 10
3 2 6 10 6 6 1 3 4 6 1 3 7 16 14 14 13 16 21 21 18 13 11 9 9 9 8 8 8 8 9 11 12 11 10 7 9 5 7 7 8 12 12 12
5 1 7 6 6 7 4 3 2 4 6 1 8 10 6 7 7 10 17 19 15 16 17 15 9 9 9 9 9 8 9 9 13 15 4 3 5 4 2 3 4 7 12 11
3 2 4 4 3 4 2 1 3 3 4 4 5 8 6 8 12 7 8 8 11 12 11 12 9 9 9 10 9 9 8 8 8 8 8 12 11 8 5 10 5 4 5 11
4 5 3 4 3 4 3 4 4 2 3 4 3 2 11 5 7 6 6 8 8 10 8 9 10 10 9 6 7 7 7 7 8 8 13 10 10 6 3 5 8 7 4 5
2 2 3 4 4 4 7 5 6 4 3 3 4 5 8 4 4 2 4 9 10 8 6 8 9 8 8 4 4 4 6 7 7 8 10 15 13 8 8 8 8 7 5 4
2 2 1 3 7 3 5 6 3 5 3 7 3 3 12 9 12 4 8 9 9 8 7 5 5 2 3 3 2 3 4 6 7 8 9 11 13 15 16 14 11 12 9 6
5 2 6 2 5 6 4 7 6 5 3 5 4 6 8 4 6 3 6 4 8 11 9 8 5 3 4 3 0 3 3 4 7 7 9 8 12 9 8 11 11 10 9 7
5 1 3 4 3 6 3 2 4 3 4 3 5 7 10 3 5 7 8 9 10 10 10 9 7 4 4 3 4 4 5 6 8 8 6 7 8 11 13 12 10 8 9 8
5 5 2 2 4 1 4 6 4 4 1 4 5 5 7 5 4 2 7 7 8 8 13 9 7 8 7 5 6 5 7 8 8 6 7 8 9 9 11 12 12 12 10 12
2 5 1 4 4 7 4 2 1 4 4 4 4 7 7 4 4 4 7 7 13 14 15 11 7 7 6 7 7 8 6 6 5 7 7 9 8 9 9 8 10 12 13 13
1 5 4 6 2 4 4 6 6 5 3 2 3 11 6 4 3 6 16 13 9 12 10 12 8 7 6 7 8 7 6 5 6 8 9 9 10 11 10 10 10 12 12 12
4 1 2 2 5 3 3 5 5 4 2 7 3 9 3 7 14 19 15 13 7 7 9 9 7 7 7 7 6 5 5 3 5 8 11 10 10 11 11 10 10 12 13 13
7 3 5 6 5 4 3 5 7 7 3 4 10 16 19 20 18 18 17 16 6 10 11 5 9 10 6 3 1 5 7 5 7 8 8 9 9 11 12 13 13 13 13 14
5 4 1 4 6 3 4 6 8 9 18 7 14 13 22 20 19 16 8 9 11 13 10 9 10 4 2 6 5 6 8 9 6 7 8 11 11 11 13 14 13 13 14 13
2 2 2 6 5 7 6 10 11 13 15 15 23 26 21 19 10 7 9 12 14 14 10 6 6 6 6 6 6 7 10 11 9 9 11 13 11 13 14 15 14 15 15 13
5 3 2 5 3 3 6 12 15 6 6 8 10 11 6 11 7 6 10 11 13 17 7 4 7 7 8 8 8 12 13 12 11 12 12 11 14 15 14 14 15 14 13 12
5 5 3 4 4 1 7 2 6 11 9 9 11 8 8 7 4 4 6 8 10 11 9 7 7 8 9 10 12 13 13 14 13 13 13 12 14 14 14 15 14 12 9 10
5 4 1 1 2 7 2 1 1 5 7 3 4 6 6 6 5 2 7 7 7 7 7 8 7 9 11 12 13 14 14 14 14 12 12 12 13 12 13 12 11 8 9 7
3 3 2 2 0 3 3 1 2 4 5 4 3 4 4 5 3 2 5 7 8 8 7 7 8 9 10 9 11 14 12 12 12 12 11 12 12 11 11 8 8 4 6 6
4 2 5 4 3 7 8 4 3 1 5 2 4 3 0 1 1 1 3 7 7 8 9 9 10 9 7 6 9 12 11 12 9 10 10 11 10 11 9 7 6 5 4 4
8 6 4 4 3 8 3 3 2 3 2 3 3 4 6 8 7 5 5 4 7 7 9 9 9 8 9 9 11 11 11 8 10 9 11 10 8 8 6 5 4 5 5 5
5 7 6 7 7 5 3 4 0 1 3 3 3 4 6 9 5 5 5 6 5 6 6 5 6 7 6 7 9 11 7 9 10 10 8 8 7 5 4 5 5 4 5 4
5 6 3 1 5 12 9 1 0 1 2 3 3 5 7 8 9 7 6 6 6 7 7 7 8 8 8 8 9 8 8 8 8 8 7 6 7 6 5 4 4 4 4 4
5 4 5 5 7 3 3 4 3 2 2 2 4 6 7 9 8 8 7 7 7 7 6 7 7 7 7 8 7 6 5 6 8 7 6 6 5 5 5 4 4 4 3 3
4 6 4 5 4 4 5 4 5 5 4 4 6 5 5 7 10 8 8 7 7 8 7 7 7 8 7 7 8 6 6 7 8 7 5 4 4 4 4 4 4 7 6 4
Wind_Direction
156 160 169 143 202 135 156 137 232 260 294 320 269 265 272 271 272 266 261 247 249 249 264 255 249 236 236 255 263 199 197 204 191 185 189 178 190 197 189 193 192 178 169 167
108 212 194 171 189 212 245 282 287 285 245 306 299 288 270 259 247 233 246 254 251 255 250 235 236 241 230 234 237 237 204 212 204 197 196 197 171 187 185 192 197 181 172 175
141 149 158 156 170 189 159 163 219 258 322 8 317 276 260 283 266 251 244 248 251 246 252 255 249 234 229 225 234 234 215 211 207 208 159 80 71 53 103 176 185 192 175 175
162 253 140 149 137 120 115 126 164 47 34 268 40 290 300 286 299 281 271 248 245 240 239 248 241 242 236 237 224 222 226 208 219 169 173 201 192 174 190 188 176 162 172 174
225 160 129 105 179 133 165 98 91 79 68 3 301 190 275 309 302 305 311 309 263 246 240 250 241 237 244 258 255 256 242 220 203 198 183 193 220 200 130 136 143 145 151 176
94 69 100 160 59 127 125 72 38 56 71 348 237 165 286 249 248 340 325 331 314 288 246 246 254 245 247 231 235 256 274 260 222 201 197 193 173 153 149 148 147 152 139 156
45 30 78 95 90 46 90 67 357 355 1 230 155 150 251 276 274 325 313 326 349 358 342 306 211 101 88 103 116 202 198 254 255 225 205 192 180 171 174 172 162 154 157 168
136 302 174 185 158 173 157 142 156 213 226 285 298 232 251 255 299 10 79 30 16 5 342 304 289 205 172 174 203 339 311 281 264 244 212 196 180 171 168 171 161 165 163 157
121 274 113 155 131 131 199 111 194 82 24 38 260 295 293 103 40 35 30 24 4 350 347 342 306 256 223 250 264 267 292 272 265 242 184 160 156 159 161 152 149 144 141 143
193 97 153 156 94 97 130 154 63 355 102 269 278 275 245 277 53 50 7 350 326 320 315 303 260 263 283 293 287 281 267 258 251 184 145 155 156 150 146 144 151 146 148 144
118 97 320 122 203 182 142 187 177 120 158 188 306 266 212 221 140 345 322 305 331 329 314 298 282 267 278 298 296 296 289 275 164 143 134 137 131 126 131 141 140 143 143 145
69 110 166 208 265 188 160 192 166 131 246 233 155 268 276 294 232 299 326 325 313 301 283 286 273 275 287 297 301 304 305 184 165 137 123 122 120 124 129 134 144 136 133 139
163 92 95 66 6 12 184 198 188 128 114 205 137 263 352 320 318 315 312 316 299 307 324 311 281 263 278 289 311 8 32 73 102 113 121 118 128 129 126 131 123 124 127 126
95 144 166 181 200 147 196 190 194 157 177 198 227 279 289 292 295 312 309 302 272 297 303 294 298 266 284 316 35 72 55 10 58 90 108 113 118 121 126 122 121 122 117 114
109 184 215 249 250 205 224 220 198 194 230 234 273 277 281 293 306 302 337 336 323 311 307 302 319 285 33 62 40 59 67 62 54 81 96 99 102 107 105 104 103 102 99 95
41 168 40 293 267 220 241 235 225 232 246 255 264 270 277 282 324 352 341 334 321 314 305 310 52 52 57 72 71 77 80 78 84 87 92 94 102 98 98 98 100 95 90 88
133 139 86 272 339 300 284 223 209 203 219 221 239 259 306 318 335 6 341 339 334 321 287 72 73 62 68 72 77 73 71 77 83 82 81 90 93 91 90 92 88 86 90 95
124 119 135 256 359 300 248 252 184 201 238 219 265 291 307 315 132 62 11 349 348 8 30 54 67 69 72 79 80 85 83 80 78 80 80 80 86 89 89 88 86 85 97 101
134 136 200 289 264 278 225 258 138 201 280 184 222 293 304 334 157 107 14 9 11 30 40 53 64 86 91 91 93 89 89 93 93 94 95 92 87 82 85 86 94 101 94 91
127 160 130 349 210 254 255 191 360 111 288 200 225 269 314 338 315 347 11 26 40 41 45 64 67 70 73 82 98 105 113 108 102 101 93 92 95 96 95 96 90 81 136 153
173 190 228 220 277 286 250 268 145 32 252 234 198 230 111 89 51 71 71 58 61 58 61 56 60 63 62 67 87 87 85 81 85 82 87 89 89 91 91 97 123 120 108 104
179 175 197 185 223 268 226 89 222 236 258 252 196 174 118 124 136 114 73 95 82 75 76 68 65 49 47 60 85 81 79 84 86 85 89 87 87 96 115 142 105 94 101 97
204 191 180 197 212 246 263 232 43 267 243 251 191 165 145 136 145 133 119 111 114 92 87 93 92 80 56 84 89 92 78 90 92 90 86 112 134 125 104 98 94 85 85 86
226 188 234 108 257 249 259 217 295 251 249 253 212 148 144 154 146 145 139 123 124 127 121 117 104 91 87 82 91 99 109 112 124 110 97 90 93 84 75 78 88 95 81 82
217 148 209 249 286 275 250 220 199 217 238 210 148 146 154 147 149 149 149 137 129 120 120 111 109 109 113 115 111 110 116 107 99 97 95 83 81 88 86 76 90 86 75 109
197 205 182 229 240 208 246 186 168 188 208 191 149 131 147 160 157 148 153 147 137 131 123 115 116 119 116 110 103 93 95 104 108 98 91 98 94 79 70 71 45 51 63 48